�������l�o���
Date,Time,MP-1(��Sv/h),MP-2(��Sv/h),MP-3(��Sv/h),MP-4(��Sv/h),MP-5(��Sv/h),MP-6(��Sv/h),MP-7(��Sv/h),MP-8(��Sv/h),����,����(m/s),���J
2024/02/09,00:00,0.497,0.750,0.474,0.943,0.676,0.307,0.549,0.515,�k��,4.0,��
2024/02/09,00:10,0.497,0.749,0.476,0.946,0.676,0.306,0.549,0.516,�k��,4.5,��
2024/02/09,00:20,0.497,0.750,0.476,0.944,0.674,0.306,0.549,0.516,�k��,4.5,��
2024/02/09,00:30,0.497,0.749,0.474,0.945,0.675,0.307,0.549,0.517,�k��,5.1,��
2024/02/09,00:40,0.498,0.750,0.475,0.946,0.676,0.307,0.549,0.517,�k��,4.3,��
2024/02/09,00:50,0.495,0.750,0.475,0.946,0.675,0.305,0.550,0.516,�k��,4.0,��
2024/02/09,01:00,0.496,0.747,0.475,0.944,0.673,0.306,0.549,0.516,�k��,3.8,��
2024/02/09,01:10,0.497,0.749,0.474,0.945,0.674,0.306,0.549,0.517,�k��,4.1,��
2024/02/09,01:20,0.496,0.749,0.474,0.945,0.676,0.306,0.548,0.515,�k��,4.1,��
2024/02/09,01:30,0.496,0.747,0.476,0.946,0.674,0.305,0.547,0.518,�k��,4.4,��
2024/02/09,01:40,0.497,0.748,0.474,0.945,0.674,0.306,0.550,0.516,�k��,4.6,��
2024/02/09,01:50,0.497,0.749,0.476,0.944,0.674,0.306,0.549,0.516,�k��,4.3,��
2024/02/09,02:00,0.498,0.748,0.476,0.945,0.674,0.306,0.549,0.515,�k��,4.7,��
2024/02/09,02:10,0.496,0.749,0.474,0.943,0.675,0.306,0.550,0.515,�k��,5.1,��
2024/02/09,02:20,0.499,0.750,0.473,0.945,0.673,0.306,0.549,0.517,���k��,4.4,��
2024/02/09,02:30,0.497,0.748,0.474,0.946,0.675,0.305,0.549,0.516,�k��,4.8,��
2024/02/09,02:40,0.496,0.747,0.474,0.944,0.673,0.307,0.548,0.517,�k��,5.0,��
2024/02/09,02:50,0.496,0.748,0.473,0.944,0.675,0.308,0.548,0.517,�k��,5.1,��
2024/02/09,03:00,0.497,0.749,0.475,0.945,0.674,0.307,0.549,0.517,�k��,4.9,��
2024/02/09,03:10,0.496,0.749,0.475,0.944,0.675,0.306,0.550,0.516,�k��,4.5,��
2024/02/09,03:20,0.496,0.749,0.474,0.945,0.673,0.305,0.548,0.516,�k��,4.0,��
2024/02/09,03:30,0.496,0.750,0.475,0.946,0.673,0.306,0.549,0.516,�k��,3.3,��
2024/02/09,03:40,0.496,0.748,0.474,0.945,0.672,0.305,0.547,0.518,�k��,3.6,��
2024/02/09,03:50,0.497,0.748,0.474,0.943,0.673,0.304,0.549,0.518,�k��,4.5,��
2024/02/09,04:00,0.497,0.747,0.474,0.943,0.673,0.306,0.549,0.516,�k��,5.2,��
2024/02/09,04:10,0.497,0.747,0.475,0.945,0.673,0.305,0.548,0.517,�k��,4.7,��
2024/02/09,04:20,0.496,0.746,0.474,0.944,0.673,0.306,0.549,0.517,�k��,5.2,��
2024/02/09,04:30,0.497,0.749,0.475,0.943,0.674,0.305,0.548,0.517,�k��,5.5,��
2024/02/09,04:40,0.495,0.749,0.474,0.946,0.672,0.305,0.548,0.518,�k��,5.4,��
2024/02/09,04:50,0.496,0.747,0.474,0.944,0.673,0.306,0.548,0.516,�k��,5.7,��
2024/02/09,05:00,0.497,0.748,0.474,0.946,0.673,0.305,0.550,0.517,�k��,5.3,��
2024/02/09,05:10,0.495,0.748,0.474,0.945,0.673,0.305,0.550,0.517,�k��,5.6,��
2024/02/09,05:20,0.496,0.748,0.474,0.946,0.673,0.304,0.549,0.516,�k��,6.3,��
2024/02/09,05:30,0.494,0.747,0.475,0.944,0.674,0.305,0.550,0.517,�k��,5.4,��
2024/02/09,05:40,0.496,0.748,0.473,0.945,0.674,0.305,0.548,0.517,�k��,6.3,��
2024/02/09,05:50,0.496,0.745,0.474,0.948,0.673,0.305,0.548,0.516,�k��,5.7,��
2024/02/09,06:00,0.495,0.747,0.473,0.944,0.672,0.305,0.549,0.516,�k��,5.1,��
2024/02/09,06:10,0.495,0.749,0.474,0.945,0.672,0.306,0.548,0.516,�k��,4.4,��
2024/02/09,06:20,0.494,0.748,0.475,0.944,0.671,0.305,0.549,0.517,�k��,3.7,��
2024/02/09,06:30,0.496,0.748,0.475,0.944,0.674,0.304,0.549,0.516,�k�k��,3.7,��
2024/02/09,06:40,0.495,0.747,0.474,0.945,0.674,0.304,0.549,0.516,�k�k��,3.1,��
2024/02/09,06:50,0.496,0.746,0.472,0.946,0.673,0.306,0.547,0.517,�k�k��,3.9,��
2024/02/09,07:00,0.497,0.747,0.475,0.944,0.675,0.305,0.549,0.516,�k��,3.5,��
2024/02/09,07:10,0.494,0.748,0.474,0.946,0.672,0.305,0.550,0.515,�k��,3.9,��
2024/02/09,07:20,0.496,0.745,0.474,0.947,0.673,0.306,0.548,0.517,�k��,3.8,��
2024/02/09,07:30,0.495,0.747,0.473,0.945,0.672,0.305,0.549,0.517,�k��,3.6,��
2024/02/09,07:40,0.496,0.747,0.474,0.944,0.672,0.306,0.549,0.516,�k��,3.5,��
2024/02/09,07:50,0.494,0.746,0.475,0.944,0.671,0.305,0.549,0.516,�k�k��,3.0,��
2024/02/09,08:00,0.496,0.746,0.473,0.944,0.672,0.305,0.549,0.516,�k��,2.5,��
2024/02/09,08:10,0.498,0.747,0.474,0.944,0.672,0.305,0.550,0.518,�k��,2.6,��
2024/02/09,08:20,0.496,0.746,0.473,0.943,0.671,0.305,0.549,0.516,�k��,2.9,��
2024/02/09,08:30,0.495,0.748,0.473,0.944,0.672,0.306,0.550,0.516,���k��,2.9,��
2024/02/09,08:40,0.495,0.747,0.474,0.945,0.672,0.304,0.550,0.516,�k��,2.6,��
2024/02/09,08:50,0.496,0.748,0.472,0.946,0.672,0.304,0.550,0.517,�k��,2.6,��
2024/02/09,09:00,0.498,0.747,0.474,0.945,0.672,0.306,0.549,0.517,�k��,2.5,��
2024/02/09,09:10,0.497,0.747,0.474,0.946,0.674,0.305,0.550,0.516,�k�k��,1.9,��
2024/02/09,09:20,0.497,0.750,0.474,0.946,0.674,0.305,0.550,0.516,�k�k��,2.3,��
2024/02/09,09:30,0.499,0.749,0.474,0.946,0.673,0.306,0.551,0.519,�k�k��,2.3,��
2024/02/09,09:40,0.498,0.749,0.476,0.946,0.674,0.306,0.551,0.518,�k,2.6,��
2024/02/09,09:50,0.499,0.749,0.475,0.946,0.673,0.305,0.552,0.516,�k,2.9,��
2024/02/09,10:00,0.497,0.750,0.476,0.944,0.677,0.306,0.551,0.518,�k�k��,2.6,��
2024/02/09,10:10,0.498,0.751,0.475,0.946,0.676,0.305,0.551,0.517,�k,1.9,��
2024/02/09,10:20,0.498,0.752,0.475,0.947,0.675,0.306,0.551,0.517,�k�k��,2.3,��
2024/02/09,10:30,0.499,0.750,0.477,0.947,0.675,0.307,0.548,0.517,�k�k��,3.0,��
2024/02/09,10:40,0.500,0.752,0.476,0.947,0.678,0.306,0.547,0.518,�k�k��,3.2,��
2024/02/09,10:50,0.499,0.751,0.476,0.946,0.677,0.308,0.549,0.517,�k�k��,3.6,��
2024/02/09,11:00,0.498,0.750,0.477,0.947,0.675,0.308,0.547,0.519,�k�k��,3.7,��
2024/02/09,11:10,0.499,0.750,0.476,0.947,0.678,0.307,0.547,0.516,�k�k��,4.2,��
2024/02/09,11:20,0.499,0.750,0.475,0.948,0.678,0.308,0.548,0.518,�k�k��,4.5,��
2024/02/09,11:30,0.499,0.750,0.477,0.945,0.678,0.307,0.548,0.518,�k�k��,4.8,��
2024/02/09,11:40,0.499,0.752,0.478,0.946,0.679,0.308,0.547,0.516,�k�k��,4.7,��
2024/02/09,11:50,0.499,0.751,0.476,0.946,0.679,0.306,0.548,0.518,�k�k��,4.7,��
2024/02/09,12:00,0.502,0.752,0.477,0.947,0.681,0.306,0.549,0.520,�k�k��,5.0,��
2024/02/09,12:10,0.501,0.754,0.477,0.948,0.676,0.308,0.549,0.518,�k�k��,4.1,��
2024/02/09,12:20,0.501,0.752,0.477,0.948,0.678,0.307,0.548,0.518,�k�k��,4.3,��
2024/02/09,12:30,0.498,0.752,0.477,0.948,0.676,0.307,0.548,0.517,�k�k��,5.4,��
2024/02/09,12:40,0.501,0.751,0.476,0.948,0.677,0.307,0.550,0.518,�k�k��,5.2,��
2024/02/09,12:50,0.499,0.751,0.478,0.947,0.677,0.308,0.549,0.518,�k�k��,5.8,��
2024/02/09,13:00,0.501,0.751,0.477,0.950,0.676,0.307,0.548,0.519,�k�k��,6.0,��
2024/02/09,13:10,0.500,0.753,0.478,0.947,0.678,0.307,0.550,0.520,�k�k��,5.6,��
2024/02/09,13:20,0.498,0.752,0.478,0.948,0.679,0.307,0.550,0.521,�k�k��,5.8,��
2024/02/09,13:30,0.499,0.755,0.477,0.947,0.678,0.308,0.549,0.518,�k�k��,6.2,��
2024/02/09,13:40,0.499,0.755,0.476,0.948,0.679,0.308,0.550,0.519,�k�k��,6.2,��
2024/02/09,13:50,0.501,0.756,0.477,0.949,0.680,0.309,0.550,0.519,�k�k��,5.7,��
2024/02/09,14:00,0.500,0.756,0.477,0.947,0.678,0.309,0.549,0.517,�k�k��,6.2,��
2024/02/09,14:10,0.501,0.754,0.477,0.948,0.679,0.308,0.550,0.518,�k�k��,6.9,��
2024/02/09,14:20,0.500,0.756,0.477,0.948,0.680,0.307,0.549,0.518,�k�k��,6.4,��
2024/02/09,14:30,0.501,0.756,0.478,0.949,0.681,0.308,0.549,0.515,�k�k��,6.5,��
2024/02/09,14:40,0.500,0.756,0.474,0.949,0.679,0.308,0.551,0.516,�k�k��,7.2,��
2024/02/09,14:50,0.500,0.753,0.468,0.947,0.681,0.307,0.551,0.517,�k�k��,6.0,��
2024/02/09,15:00,0.503,0.756,0.467,0.949,0.680,0.309,0.552,0.516,�k�k��,6.2,��
2024/02/09,15:10,0.501,0.756,0.477,0.948,0.680,0.309,0.552,0.518,�k�k��,6.1,��
2024/02/09,15:20,0.502,0.754,0.478,0.949,0.677,0.308,0.552,0.519,�k�k��,5.5,��
2024/02/09,15:30,0.501,0.756,0.478,0.949,0.680,0.307,0.552,0.521,�k�k��,5.3,��
2024/02/09,15:40,0.501,0.756,0.478,0.947,0.680,0.309,0.553,0.521,�k�k��,5.3,��
2024/02/09,15:50,0.502,0.757,0.479,0.947,0.682,0.310,0.553,0.518,�k,4.7,��
2024/02/09,16:00,0.501,0.757,0.480,0.950,0.683,0.309,0.555,0.519,�k,4.8,��
2024/02/09,16:10,0.503,0.758,0.480,0.949,0.681,0.307,0.554,0.520,�k,4.5,��
2024/02/09,16:20,0.501,0.757,0.478,0.951,0.683,0.308,0.554,0.517,�k,4.9,��
2024/02/09,16:30,0.501,0.756,0.477,0.949,0.682,0.308,0.554,0.519,�k,3.9,��
2024/02/09,16:40,0.502,0.756,0.477,0.949,0.683,0.309,0.556,0.520,�k,4.7,��
2024/02/09,16:50,0.501,0.758,0.479,0.951,0.683,0.309,0.554,0.518,�k,5.4,��
2024/02/09,17:00,0.500,0.757,0.479,0.950,0.681,0.309,0.555,0.518,�k,5.7,��
2024/02/09,17:10,0.501,0.756,0.479,0.947,0.682,0.309,0.554,0.517,�k,5.6,��
2024/02/09,17:20,0.500,0.760,0.479,0.948,0.683,0.307,0.554,0.518,�k,5.8,��
2024/02/09,17:30,0.503,0.758,0.477,0.950,0.681,0.307,0.554,0.516,�k,5.7,��
2024/02/09,17:40,0.500,0.757,0.479,0.949,0.682,0.309,0.553,0.517,�k,6.1,��
2024/02/09,17:50,0.499,0.756,0.478,0.951,0.680,0.308,0.555,0.518,�k,6.0,��
2024/02/09,18:00,0.500,0.759,0.478,0.949,0.680,0.308,0.555,0.518,�k�k��,5.4,��
2024/02/09,18:10,0.500,0.757,0.478,0.950,0.682,0.308,0.555,0.519,�k,5.7,��
2024/02/09,18:20,0.500,0.757,0.477,0.948,0.683,0.307,0.553,0.516,�k�k��,5.6,��
2024/02/09,18:30,0.501,0.758,0.478,0.946,0.681,0.309,0.555,0.518,�k�k��,5.6,��
2024/02/09,18:40,0.500,0.758,0.478,0.949,0.683,0.308,0.552,0.517,�k�k��,5.4,��
2024/02/09,18:50,0.501,0.757,0.479,0.949,0.682,0.309,0.552,0.517,�k,3.1,��
2024/02/09,19:00,0.502,0.759,0.478,0.949,0.681,0.308,0.554,0.517,�k�k��,3.6,��
2024/02/09,19:10,0.501,0.758,0.479,0.949,0.683,0.308,0.552,0.518,�k�k��,4.6,��
2024/02/09,19:20,0.501,0.758,0.479,0.948,0.681,0.310,0.555,0.517,�k�k��,4.7,��
2024/02/09,19:30,0.499,0.756,0.478,0.949,0.685,0.309,0.552,0.518,�k��,3.8,��
2024/02/09,19:40,0.501,0.756,0.478,0.950,0.682,0.308,0.553,0.518,�k��,3.8,��
2024/02/09,19:50,0.502,0.756,0.479,0.950,0.682,0.308,0.553,0.519,�k��,4.0,��
2024/02/09,20:00,0.502,0.757,0.477,0.949,0.683,0.308,0.553,0.517,�k��,4.0,��
2024/02/09,20:10,0.500,0.758,0.476,0.951,0.683,0.308,0.553,0.519,�k��,3.4,��
2024/02/09,20:20,0.501,0.758,0.480,0.949,0.682,0.307,0.552,0.518,�k��,4.8,��
2024/02/09,20:30,0.500,0.758,0.478,0.947,0.682,0.307,0.553,0.517,���k��,3.4,��
2024/02/09,20:40,0.501,0.758,0.478,0.949,0.682,0.307,0.551,0.517,���k��,3.6,��
2024/02/09,20:50,0.501,0.757,0.478,0.950,0.685,0.309,0.552,0.518,�k��,2.6,��
2024/02/09,21:00,0.501,0.758,0.478,0.949,0.682,0.309,0.551,0.521,���k��,3.6,��
2024/02/09,21:10,0.500,0.758,0.479,0.949,0.683,0.308,0.552,0.518,�k��,4.8,��
2024/02/09,21:20,0.501,0.757,0.477,0.949,0.682,0.308,0.550,0.518,���k��,4.9,��
2024/02/09,21:30,0.501,0.758,0.477,0.950,0.681,0.309,0.552,0.517,�k��,5.5,��
2024/02/09,21:40,0.502,0.758,0.478,0.949,0.683,0.308,0.551,0.519,�k��,5.8,��
2024/02/09,21:50,0.501,0.759,0.478,0.949,0.684,0.306,0.551,0.518,�k��,6.1,��
2024/02/09,22:00,0.501,0.757,0.477,0.951,0.681,0.309,0.551,0.517,�k��,5.8,��
2024/02/09,22:10,0.501,0.757,0.478,0.951,0.684,0.308,0.552,0.518,�k��,5.8,��
2024/02/09,22:20,0.502,0.757,0.479,0.950,0.683,0.307,0.551,0.517,�k��,6.5,��
2024/02/09,22:30,0.503,0.756,0.478,0.949,0.679,0.307,0.551,0.517,�k��,5.5,��
2024/02/09,22:40,0.501,0.759,0.476,0.949,0.683,0.307,0.552,0.516,�k��,5.8,��
2024/02/09,22:50,0.501,0.756,0.478,0.948,0.682,0.309,0.552,0.518,�k��,5.9,��
2024/02/09,23:00,0.501,0.756,0.478,0.950,0.683,0.306,0.551,0.518,�k��,5.9,��
2024/02/09,23:10,0.501,0.757,0.478,0.948,0.680,0.307,0.551,0.518,�k��,6.6,��
2024/02/09,23:20,0.500,0.756,0.478,0.951,0.682,0.306,0.553,0.517,�k��,6.3,��
2024/02/09,23:30,0.503,0.757,0.478,0.950,0.681,0.309,0.551,0.519,�k��,6.2,��
2024/02/09,23:40,0.500,0.757,0.478,0.949,0.681,0.308,0.553,0.518,�k��,6.7,��
2024/02/09,23:50,0.500,0.756,0.478,0.949,0.681,0.308,0.553,0.518,�k��,6.4,��
